Orbital Elements
Epoch 2022 Aug. 9.0 TT = JDT 2459800.5
T 2022 Aug. 28.84480 TT MPCW
q 1.2115172 (2000.0) P Q
n 0.19497535 Peri. 16.32996 +0.45347393 +0.82551037
a 2.9454359 Node 281.71669 -0.85129680 +0.28954521
e 0.5886798 Incl. 20.06872 -0.26392263 +0.48445454
P 5.06
From 1371 observations 2002 July 30-2017 Aug. 23, mean residual 0".7.
Nongravitational parameters A1 = -0.04, A2 = -0.0050.
|